Location: Bienfait
(49.1431°N, 102.8077°W)
Time: 08:17:04
(UTC+00:00)

ISS - Visible Passes

Search period start: 23 September 2023 00:00
Search period end: 03 October 2023 00:00
Orbit: 414 x 422 km, 51.6° (Epoch: 23 September)

Date Brightness Start Highest point End Pass type
(mag) Time Alt. Az. Time Alt. Az. Time Alt. Az.
23 Sep -3.3 01:47:34 10° W 01:50:52 55° N 01:53:34 14° ENE visible
23 Sep -2.0 03:24:32 10° WNW 03:26:29 32° WNW 03:26:29 32° WNW visible
24 Sep -3.5 02:36:32 10° WNW 02:39:52 59° N 02:40:17 53° NE visible
25 Sep -3.3 01:48:30 10° WNW 01:51:47 54° N 01:54:03 18° ENE visible
25 Sep -1.6 03:25:21 10° WNW 03:26:59 26° WNW 03:26:59 26° WNW visible
26 Sep -3.9 02:37:18 10° WNW 02:40:40 86° NNE 02:40:44 84° ENE visible
27 Sep -3.7 01:49:14 10° WNW 01:52:34 69° NNE 01:54:29 23° E visible
27 Sep -1.2 03:26:08 10° W 03:27:24 19° W 03:27:24 19° W visible
28 Sep -3.3 02:37:57 10° WNW 02:41:10 51° SSW 02:41:10 51° SSW visible
29 Sep -3.7 01:49:48 10° WNW 01:53:09 73° SSW 01:54:57 25° ESE visible
29 Sep -0.7 03:27:16 10° W 03:27:52 13° WSW 03:27:52 13° WSW visible
30 Sep -3.8 01:01:38 10° WNW 01:05:00 84° NNE 01:08:21 10° ESE visible
30 Sep -2.0 02:38:42 10° W 02:41:29 25° SW 02:41:40 24° SSW visible
01 Oct -2.6 01:50:20 10° W 01:53:27 36° SSW 01:55:32 17° SSE visible
02 Oct -3.1 01:02:03 10° WNW 01:05:19 53° SSW 01:08:35 10° SE visible
02 Oct -0.9 02:40:25 10° WSW 02:41:29 11° SW 02:42:23 10° SSW visible
